Lapse_Rate
6.8 6.7 6.8 6.9 7.0 7.0 7.1 6.7 6.5 6.3 6.2 6.1 6.0 6.1 6.1 6.3 6.2 6.1 6.3 6.2 6.1 6.3 6.2 6.1 5.9 5.7 5.2 5.0 4.9 5.1 5.3 5.4 5.5 5.7 5.8 5.9 5.9 5.9 6.0 6.0 5.9 5.9 6.0 6.0 6.0 5.9 5.9 5.9 6.0
6.9 6.9 6.9 7.0 6.9 7.0 7.0 6.9 6.8 6.4 6.4 6.3 6.1 6.0 6.0 6.4 6.5 6.6 6.4 6.3 6.2 6.4 6.3 6.2 5.7 5.4 5.2 5.2 5.2 5.2 5.2 5.3 5.4 5.5 5.5 5.7 5.7 5.9 5.9 5.9 5.9 6.0 6.1 6.1 6.1 6.1 6.0 6.0 6.0
7.1 7.1 7.0 6.9 7.3 7.3 7.1 7.0 6.9 6.9 6.8 6.1 6.3 6.1 5.8 6.1 6.4 6.6 6.3 6.3 6.2 6.5 6.0 6.0 5.7 5.2 5.2 5.2 5.1 5.1 5.2 5.3 5.3 5.3 5.4 5.5 5.6 5.7 5.8 5.9 5.9 5.9 6.1 6.1 6.1 6.1 6.1 6.1 6.1
7.0 7.1 7.2 7.2 7.2 7.3 7.6 7.0 7.2 7.0 7.1 6.7 6.3 6.4 6.5 6.5 6.8 6.5 6.4 6.4 6.2 6.5 6.0 5.8 5.6 5.4 5.3 5.2 5.1 5.1 5.0 5.1 5.1 5.2 5.3 5.4 5.5 5.5 5.6 5.7 5.8 5.8 5.8 5.9 5.9 6.0 6.1 6.1 6.1
7.0 7.1 7.3 7.5 7.9 7.6 7.9 7.1 7.2 6.7 6.7 6.8 6.5 6.4 6.8 6.6 6.7 6.5 6.4 6.3 5.9 6.7 6.0 5.7 5.4 5.2 5.1 4.9 4.7 4.7 4.7 4.8 4.8 4.9 5.0 5.2 5.2 5.2 5.3 5.5 5.6 5.7 5.7 5.8 5.9 5.9 6.0 6.1 6.1
7.2 7.2 7.3 7.6 6.9 7.8 7.8 7.3 7.0 7.0 6.7 6.8 6.4 6.5 6.7 6.6 6.5 6.5 6.3 6.1 5.7 6.1 5.7 5.3 5.0 4.7 4.5 4.6 4.6 4.6 4.5 4.5 4.5 4.7 4.9 5.0 5.1 5.1 5.0 5.0 5.2 5.4 5.4 5.5 5.6 5.7 5.8 5.9 6.0
7.4 7.2 7.5 7.9 8.2 7.7 8.0 7.7 7.4 7.4 7.0 6.8 6.7 6.1 6.4 6.4 6.4 6.4 6.1 5.6 5.7 5.5 6.2 5.1 4.8 4.7 4.6 4.7 4.6 4.5 4.6 4.6 4.6 4.8 5.0 5.0 4.9 5.1 5.1 5.1 5.1 5.1 5.3 5.4 5.6 5.9 6.0 5.9 5.7
7.6 7.1 7.6 8.0 7.7 7.7 7.8 7.8 7.7 7.6 7.3 7.2 7.0 6.5 6.3 6.7 6.4 6.3 5.8 5.1 4.8 4.5 4.5 4.8 4.9 4.9 4.6 4.5 4.4 4.4 4.4 4.6 4.8 4.9 5.0 5.1 5.2 5.3 5.4 5.4 5.4 5.5 5.6 5.7 5.8 5.9 6.0 6.1 5.9
7.3 7.3 7.7 8.3 8.6 8.4 7.9 7.9 8.0 8.0 7.8 7.4 7.2 7.0 6.6 6.7 6.5 6.3 5.6 4.6 4.4 4.0 4.4 4.6 5.0 5.1 4.5 4.5 4.5 4.6 4.5 4.7 4.9 5.0 5.1 5.3 5.2 5.3 5.4 5.4 5.5 5.5 5.6 5.7 5.7 5.8 5.9 5.9 5.9
7.3 7.4 8.1 8.6 8.1 7.8 8.1 8.1 8.2 8.0 7.8 7.6 7.3 7.2 6.9 6.6 6.5 6.3 5.3 4.9 4.7 4.3 4.1 4.3 4.8 4.7 4.9 4.4 4.5 4.5 4.7 4.8 4.9 5.0 5.0 5.2 5.1 5.2 5.2 5.3 5.3 5.4 5.4 5.5 5.7 5.7 5.7 5.7 5.8
7.4 7.5 8.4 8.1 8.0 8.0 8.2 8.1 8.1 8.1 7.7 7.5 7.1 7.3 7.1 6.7 6.7 6.6 5.2 5.1 5.0 4.9 4.5 4.6 4.4 4.6 4.9 4.6 4.6 4.7 4.9 4.8 4.8 4.9 5.0 5.0 5.0 5.0 5.2 5.2 5.3 5.4 5.4 5.5 5.6 5.7 5.7 5.7 5.6
7.1 7.5 8.0 7.7 7.6 8.1 8.3 8.0 8.2 8.1 7.7 7.6 7.5 6.9 7.1 6.9 6.8 6.7 5.3 5.1 4.8 5.2 4.9 4.8 4.8 4.8 5.1 4.8 4.9 4.8 4.8 4.9 4.7 4.8 4.8 4.7 4.9 5.0 5.2 5.3 5.3 5.3 5.5 5.5 5.6 5.6 5.5 5.6 5.6
6.8 7.4 7.4 7.2 7.8 8.2 8.1 7.9 7.9 8.1 7.7 7.7 7.5 7.1 7.1 7.1 6.7 6.4 5.4 5.2 4.9 5.1 5.0 5.1 4.8 4.7 4.8 4.9 4.9 4.8 4.7 4.9 5.0 4.8 4.8 4.9 5.1 5.3 5.4 5.5 5.5 5.5 5.5 5.5 5.6 5.6 5.6 5.6 5.6
7.1 7.2 7.1 7.4 7.8 8.1 8.0 7.7 8.0 8.0 7.8 7.5 7.5 7.2 7.1 7.1 6.6 5.8 5.4 5.3 4.8 5.7 5.9 5.7 5.1 5.0 5.0 5.2 5.1 4.9 4.9 5.0 4.8 4.8 4.9 5.2 5.3 5.4 5.4 5.5 5.6 5.6 5.6 5.6 5.6 5.6 5.6 5.7 5.7
7.0 7.0 7.0 7.2 7.3 7.4 7.6 7.1 8.0 7.7 7.7 7.6 7.5 7.2 7.1 7.0 6.8 6.0 6.2 6.1 5.7 6.2 6.2 5.8 5.3 4.9 5.3 5.3 5.0 5.0 5.0 4.9 4.9 5.0 5.2 5.3 5.4 5.5 5.6 5.6 5.7 5.7 5.7 5.7 5.8 5.8 5.8 5.8 5.8
6.9 7.1 7.0 6.9 7.2 7.2 7.4 7.7 7.3 7.6 7.5 7.5 7.5 7.2 7.2 6.9 6.7 6.4 6.4 6.2 5.4 6.1 6.0 5.8 5.2 5.0 5.4 5.2 5.2 5.1 5.0 5.0 5.1 5.2 5.4 5.5 5.6 5.7 5.8 5.8 5.8 5.8 5.8 5.8 5.8 5.7 5.8 5.9 5.9
6.9 7.0 7.2 7.2 7.0 7.0 7.0 7.0 7.2 7.5 7.4 7.4 7.4 7.2 6.8 6.9 6.7 6.3 6.4 6.2 5.8 5.9 6.0 5.7 5.4 5.3 5.3 5.3 5.2 5.1 5.0 5.0 5.1 5.4 5.5 5.7 5.8 5.8 5.8 5.8 5.9 5.9 5.8 5.7 5.7 5.7 5.7 5.8 5.9
7.2 7.3 7.6 7.4 7.3 7.0 7.0 6.8 6.3 7.0 7.2 7.4 7.4 7.1 6.5 6.4 6.6 6.2 5.8 6.0 5.8 5.9 5.9 5.8 5.6 5.5 5.4 5.3 5.3 5.1 5.1 5.2 5.3 5.5 5.7 5.9 5.9 5.9 6.0 6.0 5.9 5.8 5.7 5.7 5.6 5.6 5.7 5.8 5.9
8.2 8.2 8.1 7.5 6.9 6.9 7.1 6.5 6.7 6.6 7.1 7.4 7.3 7.3 6.7 6.3 6.0 5.9 5.8 5.9 5.8 5.8 5.7 5.9 5.7 5.5 5.6 5.3 5.3 5.2 5.2 5.4 5.5 5.7 5.9 6.0 6.1 6.2 6.0 5.9 5.8 5.7 5.6 5.6 5.7 5.7 5.9 5.9 5.8
8.5 8.2 8.0 6.9 6.5 7.1 6.8 6.7 6.8 6.7 6.9 7.0 7.3 7.5 7.2 6.5 6.1 5.6 5.7 5.8 5.8 5.8 5.6 5.7 5.8 5.7 5.8 5.5 5.4 5.3 5.4 5.6 5.8 5.8 5.9 5.9 5.9 5.8 5.8 5.8 5.8 5.7 5.6 5.6 5.6 5.6 5.7 5.9 5.9
8.2 8.1 8.3 7.8 7.3 7.3 7.0 7.0 7.0 7.0 7.4 6.9 7.4 7.5 7.3 7.0 6.1 5.7 5.7 5.8 5.7 5.8 5.7 5.6 5.7 5.7 5.8 5.6 5.5 5.5 5.6 5.7 5.7 5.8 6.4 6.1 5.8 5.8 5.8 5.7 5.6 5.5 5.4 5.4 5.5 5.5 5.6 5.7 6.0
7.9 7.9 7.9 7.7 7.6 7.4 7.4 7.1 7.6 7.4 7.1 7.0 6.9 7.3 7.2 7.0 6.3 5.8 5.6 5.9 5.9 5.8 5.8 5.6 5.6 5.9 5.8 5.8 5.7 5.8 5.8 5.9 5.8 5.9 6.1 6.3 6.2 6.1 5.9 5.7 5.6 5.4 5.4 5.4 5.4 5.5 5.6 5.6 5.7
8.0 7.6 7.7 7.7 7.6 7.7 7.3 7.0 7.5 7.1 6.8 6.5 6.9 7.1 7.1 7.1 6.8 5.8 5.7 5.7 5.8 5.8 5.8 5.7 5.8 5.7 5.8 5.9 6.1 6.0 6.1 6.1 6.0 5.8 5.6 5.6 5.6 5.6 5.7 5.7 5.6 5.6 5.6 5.5 5.6 5.7 5.8 5.9 5.9
7.4 7.7 7.7 7.7 7.6 7.3 7.9 7.9 7.9 7.1 7.3 6.9 7.1 7.2 7.2 7.1 7.0 6.0 5.9 5.7 5.8 6.0 6.0 6.1 6.0 6.0 5.9 6.0 6.1 6.3 6.3 6.0 6.0 5.9 5.8 5.9 6.0 5.9 5.7 5.5 5.5 5.6 5.6 5.6 5.7 5.8 5.8 5.9 5.9
7.6 7.6 7.7 7.2 7.0 7.4 8.1 8.2 7.2 7.6 7.6 7.2 7.1 7.0 7.1 7.1 6.9 6.6 6.5 6.4 6.4 6.3 6.2 6.2 6.2 6.2 6.2 6.3 6.3 6.4 6.2 6.2 6.2 6.0 5.9 5.9 5.9 5.9 5.9 5.8 5.7 5.7 5.7 5.7 5.7 5.8 5.8 5.8 5.8
7.9 7.9 8.2 7.9 8.0 8.1 7.8 7.9 7.0 7.6 7.5 7.3 6.9 6.9 7.0 7.0 7.0 6.9 6.8 6.6 6.6 6.6 6.6 6.5 6.5 6.6 6.5 6.4 6.3 6.2 6.2 6.2 6.2 6.2 6.2 6.2 6.2 6.1 6.0 5.8 5.7 5.8 5.8 5.8 5.8 5.9 5.8 5.7 5.6
7.4 7.6 7.8 8.0 8.5 8.4 8.7 7.7 7.2 7.4 7.2 7.0 7.0 7.0 7.0 7.1 7.0 7.0 7.0 7.0 6.9 6.8 6.7 6.6 6.6 6.6 6.5 6.3 6.3 6.2 6.2 6.2 6.3 6.4 6.4 6.3 6.1 5.9 5.9 5.9 5.9 5.9 5.9 5.9 5.8 5.7 5.7 5.7 5.7
7.5 7.6 7.7 7.7 7.7 7.8 8.8 8.2 7.4 6.9 7.2 7.2 7.2 7.0 7.0 7.0 7.0 6.9 6.8 6.7 6.6 6.6 6.6 6.5 6.5 6.4 6.3 6.3 6.3 6.4 6.4 6.3 6.2 6.2 6.3 6.2 6.2 6.2 6.2 6.2 6.1 6.1 6.0 5.8 5.7 5.7 5.7 5.6 5.7
7.5 7.3 7.7 7.7 7.9 7.4 7.3 7.3 7.1 7.1 7.5 7.2 7.4 7.2 7.0 6.8 6.7 6.7 6.6 6.5 6.4 6.3 6.1 6.1 6.2 6.3 6.3 6.4 6.6 6.6 6.5 6.5 6.5 6.3 6.2 6.2 6.2 6.2 6.0 5.9 5.8 5.7 5.7 5.6 5.5 5.6 5.6 5.7 5.7
7.5 7.5 7.6 7.7 8.0 7.8 7.8 7.3 7.2 6.9 6.9 7.0 7.2 6.9 6.9 6.8 6.6 6.4 6.3 6.1 6.0 6.0 6.1 6.1 6.2 6.3 6.3 6.4 6.4 6.4 6.4 6.3 6.4 6.4 6.3 6.2 6.1 6.0 5.9 5.9 5.7 5.6 5.6 5.6 5.6 5.7 5.9 5.9 5.8
Wind_Speed
14 12 5 2 2 3 4 3 7 5 7 4 9 11 13 14 7 4 4 8 10 15 17 15 13 12 12 11 12 12 12 12 12 13 14 14 15 15 15 15 15 16 16 16 15 15 15 14 14
10 7 2 3 3 2 3 7 9 9 8 7 6 4 14 13 11 9 7 8 9 14 20 18 14 12 11 11 11 11 12 12 12 12 12 13 14 14 15 15 15 15 15 14 15 16 15 14 12
7 7 3 4 4 4 5 7 9 8 6 3 5 6 5 3 8 5 9 9 9 19 20 18 15 12 11 10 10 10 10 11 12 12 12 12 13 14 15 15 15 15 15 14 14 14 13 13 14
3 2 4 4 2 11 8 10 10 7 3 3 4 10 6 8 7 8 9 10 8 18 20 16 14 13 11 11 10 9 10 10 10 10 11 12 13 13 13 14 14 14 14 14 14 13 12 12 11
2 4 5 7 2 6 10 13 9 7 7 6 2 7 7 5 14 11 9 10 8 16 20 15 13 12 11 10 10 10 9 10 10 10 10 10 11 11 12 12 11 12 13 14 13 12 11 10 10
3 3 6 9 6 3 8 11 8 8 7 6 3 8 6 8 11 9 8 8 10 14 19 17 13 12 10 10 11 11 10 7 8 10 11 10 10 11 11 15 16 15 15 15 14 13 12 10 9
4 6 11 11 4 8 4 10 6 4 5 7 5 8 9 10 9 9 8 8 10 14 17 17 16 13 11 11 12 12 13 13 12 12 13 15 15 15 16 17 16 14 14 14 13 13 11 9 8
3 4 12 11 13 13 7 5 6 1 6 4 5 1 8 13 12 10 8 9 11 11 12 16 15 15 14 13 13 13 12 12 11 9 10 15 15 15 15 14 13 12 12 12 12 12 11 10 8
4 3 6 14 7 6 10 6 2 4 6 1 3 8 11 16 13 10 8 8 9 10 13 8 15 14 14 13 10 10 11 8 9 7 7 5 14 12 12 10 10 11 9 8 8 11 13 18 11
5 4 9 7 7 2 9 10 8 5 5 5 5 7 10 12 11 9 8 6 8 12 13 11 12 13 14 12 8 8 9 5 7 8 10 12 10 6 8 8 15 11 16 14 16 16 17 16 15
7 5 11 4 7 3 9 7 8 5 7 6 13 12 8 8 8 8 8 10 9 10 9 11 10 14 13 10 11 11 10 10 12 11 11 10 10 10 11 11 11 13 13 13 14 13 13 13 14
5 13 12 4 2 3 8 6 6 6 4 7 9 14 10 9 10 9 8 9 12 9 7 10 10 7 12 9 5 9 9 11 9 12 12 11 8 9 8 8 10 10 12 13 13 13 15 17 16
8 12 10 7 2 4 6 5 1 8 8 5 7 11 10 9 10 9 9 6 11 10 7 8 8 8 8 7 10 8 6 11 11 9 10 9 7 5 7 9 10 11 13 13 11 12 12 12 14
5 2 5 4 2 4 2 4 4 7 7 5 6 7 9 8 9 7 4 7 10 10 8 8 7 8 12 5 8 6 11 12 10 7 9 10 9 8 8 8 9 11 13 14 13 9 7 6 10
4 2 4 3 3 6 9 5 9 2 6 7 7 8 8 8 7 6 7 8 8 8 8 7 8 8 9 7 9 8 8 10 7 8 11 9 9 10 8 7 6 8 11 10 10 9 10 5 8
4 2 3 2 3 1 4 4 10 7 5 7 8 8 8 8 7 7 8 8 9 10 9 8 5 8 9 7 8 7 9 8 7 9 8 9 8 7 8 5 3 7 7 7 5 4 4 4 5
6 6 8 7 4 2 5 5 4 5 5 6 6 7 9 8 7 6 9 8 9 10 10 7 4 8 9 8 7 8 9 6 7 8 10 7 6 7 7 4 3 6 5 4 3 3 3 4 5
11 13 9 11 7 4 4 5 17 17 9 7 6 7 6 9 8 6 9 8 9 9 10 8 4 8 8 5 4 4 3 4 6 5 7 9 8 4 3 3 4 4 3 3 3 3 3 3 4
14 5 5 5 5 5 8 3 10 9 9 7 5 7 6 10 9 8 8 8 8 8 9 9 7 7 5 2 3 2 3 2 2 3 5 2 3 2 2 1 3 4 2 2 3 2 3 3 4
13 8 10 10 6 4 4 6 12 14 0 4 5 6 6 5 9 11 10 8 8 7 8 9 8 7 6 3 3 3 3 2 3 5 6 3 3 4 0 2 2 3 2 4 4 3 3 2 3
10 6 4 8 6 3 3 5 9 3 7 4 1 3 6 8 8 12 11 9 8 6 6 8 9 7 6 5 1 2 3 3 3 0 2 5 9 4 4 4 3 3 2 3 4 4 4 3 3
8 10 2 7 5 5 7 4 4 11 8 6 8 7 7 7 6 12 11 10 9 6 7 5 7 8 6 6 2 3 3 3 4 4 3 4 7 7 6 5 4 4 3 4 4 3 2 3 4
2 5 5 6 7 6 8 2 2 9 8 8 8 6 5 8 7 9 10 9 8 7 6 5 3 5 6 6 6 3 2 3 2 1 2 2 3 8 8 5 5 4 3 3 4 5 5 3 2
9 5 4 1 2 4 12 8 0 3 5 7 8 6 5 4 5 7 9 9 7 7 5 4 1 2 3 4 4 6 7 4 4 3 2 3 2 1 3 4 4 4 4 4 4 4 5 5 5
6 7 3 3 3 3 5 5 5 7 7 7 8 7 6 5 7 9 9 8 7 7 5 3 1 4 4 4 6 6 4 4 2 4 2 3 2 3 4 4 4 3 5 7 6 5 6 6 5
7 3 2 3 3 4 2 4 4 8 8 8 8 7 7 7 6 8 7 5 4 6 6 7 6 6 6 5 2 2 4 2 1 2 3 3 2 3 3 4 6 6 8 8 7 4 5 6 5
5 3 2 3 5 2 5 5 4 8 8 9 9 8 7 8 8 8 8 8 8 8 8 8 7 6 7 6 3 3 1 3 3 2 2 2 4 3 5 6 6 7 8 8 6 5 6 6 6
4 3 1 2 2 4 6 6 6 9 8 9 9 8 7 7 8 8 7 8 7 6 4 6 6 5 4 5 4 4 5 5 4 2 4 4 5 5 6 6 7 7 7 6 7 5 6 7 6
3 2 3 1 2 1 4 3 5 9 9 9 9 8 7 7 7 7 7 7 6 5 4 3 4 4 4 5 5 6 5 4 5 4 5 6 4 6 6 6 7 7 7 7 7 7 8 8 8
4 3 7 2 2 2 2 1 5 9 8 9 9 7 7 7 7 6 5 4 5 4 4 3 1 1 1 2 1 4 5 4 4 5 5 6 6 6 7 7 7 7 7 7 7 7 8 9 9
Wind_Direction
297 238 232 263 282 188 119 71 114 133 94 55 48 54 77 45 6 87 185 117 121 115 128 120 118 105 99 89 77 76 75 71 69 66 64 62 59 56 55 52 48 47 46 46 51 51 51 50 47
297 283 288 273 241 68 92 151 95 85 88 96 56 45 76 83 86 121 120 126 130 139 127 119 118 110 99 97 81 78 77 73 70 67 64 62 60 59 58 56 53 50 48 45 40 43 49 45 44
263 250 261 212 234 175 140 113 108 113 126 171 124 44 90 78 89 97 122 133 137 98 103 119 114 109 102 92 87 82 81 77 74 70 65 63 62 63 62 59 55 52 50 47 44 39 36 46 37
288 212 261 247 283 313 125 116 125 138 136 317 109 99 84 47 113 120 143 132 123 101 109 120 116 114 108 100 96 89 83 79 76 74 70 67 67 66 61 58 56 54 52 48 45 41 37 26 30
243 253 250 242 156 198 117 125 145 173 149 164 252 112 91 54 107 129 146 133 150 114 120 126 120 117 115 114 98 93 89 85 79 75 74 71 69 65 60 55 52 54 53 49 44 41 38 33 28
268 238 264 258 339 81 114 136 178 158 144 89 175 114 126 141 127 141 147 143 110 126 123 133 123 116 113 106 104 95 84 82 82 67 72 75 69 68 57 56 49 53 53 45 36 30 27 27 22
247 280 268 278 117 300 145 149 158 147 150 152 1 124 132 158 146 150 160 135 125 134 132 136 132 123 109 102 106 96 86 84 80 77 84 86 71 66 65 56 48 47 47 42 32 21 12 8 358
291 244 276 275 165 210 136 145 84 304 75 74 354 84 159 165 153 155 175 143 136 125 140 136 135 130 124 101 105 105 101 101 101 105 106 105 89 72 64 60 55 47 46 38 28 12 358 347 324
285 269 257 261 240 133 133 129 108 23 125 129 103 45 141 139 154 169 173 162 151 150 125 140 128 117 115 112 114 115 114 119 127 138 147 152 69 97 91 75 59 43 27 35 21 2 348 359 15
205 232 254 303 68 302 156 156 151 164 186 153 119 77 108 143 167 181 182 137 149 125 148 135 127 127 152 121 139 150 162 140 94 59 66 100 111 87 116 101 48 24 25 20 22 18 23 2 357
204 236 265 326 321 119 158 178 155 203 175 192 179 157 160 174 180 186 182 166 201 143 127 130 133 151 122 127 174 198 117 101 52 49 80 61 59 67 54 56 51 32 18 19 19 9 11 358 351
291 268 261 344 314 272 159 174 163 205 100 36 70 151 157 179 187 196 191 207 118 115 114 141 144 135 126 139 115 84 87 84 85 53 65 54 50 54 53 59 48 41 18 17 13 7 11 359 360
228 266 295 53 303 301 148 186 137 205 130 91 90 132 162 183 191 196 208 148 112 108 97 100 101 106 122 103 96 104 99 95 84 72 64 84 74 53 62 60 46 40 26 17 15 6 13 355 353
352 129 270 17 273 6 137 101 24 222 131 143 153 162 169 192 200 190 155 102 110 117 107 99 129 116 116 112 104 99 88 90 96 89 64 71 65 78 47 53 42 28 29 18 20 10 2 351 351
4 255 82 241 231 51 346 179 229 127 123 175 176 173 178 187 184 169 132 120 120 119 130 148 117 126 112 101 100 111 136 126 124 116 98 76 58 57 68 61 47 23 27 11 12 0 356 353 338
179 252 161 101 58 49 54 295 34 89 176 200 185 176 175 182 180 142 136 146 133 119 127 110 133 122 111 118 140 141 129 134 138 117 104 93 72 60 61 66 51 36 17 3 8 358 349 342 333
187 197 215 153 113 106 22 339 1 356 271 259 202 216 163 175 175 172 152 141 121 127 118 120 171 124 123 141 140 142 143 145 132 139 123 106 74 35 77 64 22 43 12 2 13 337 353 334 325
197 211 238 204 171 133 132 269 299 304 241 232 261 245 180 168 172 173 128 129 117 124 126 145 177 125 123 128 123 112 125 150 157 140 141 157 140 104 34 358 14 37 14 356 351 332 327 321 312
220 186 219 121 124 166 199 243 311 305 221 215 238 293 291 172 164 148 125 123 125 135 139 154 151 150 134 153 129 162 182 182 158 141 142 141 95 158 193 307 336 2 344 308 298 302 326 316 311
237 209 188 90 176 146 146 232 243 263 107 52 11 335 290 267 145 136 136 140 144 160 160 153 169 161 146 161 177 181 184 193 166 156 145 179 201 252 268 290 340 313 345 327 318 315 295 278 313
223 252 202 162 155 214 126 294 251 142 125 134 169 36 308 307 179 147 147 152 154 174 172 161 158 159 153 174 189 44 55 40 37 195 193 211 216 219 254 267 290 319 317 293 280 281 279 278 294
213 207 228 135 153 230 151 267 246 156 160 134 61 31 349 317 299 150 151 153 156 184 159 185 165 162 171 178 138 152 197 207 228 205 199 205 186 217 234 259 267 270 271 282 277 295 309 329 291
101 86 174 197 200 257 196 251 355 140 150 95 79 45 9 322 323 134 138 145 156 162 161 179 183 182 174 163 162 175 261 255 266 257 145 194 225 237 229 239 261 269 276 283 299 303 293 277 275
130 145 106 98 247 252 239 192 304 124 82 87 84 66 36 359 329 104 116 129 145 146 129 128 59 301 169 159 170 192 212 259 303 302 268 236 231 280 316 309 310 312 310 297 288 287 286 278 272
230 157 157 190 179 239 88 115 116 106 88 105 105 84 86 39 57 86 84 83 85 97 93 86 156 292 293 232 209 208 221 204 287 307 317 356 350 341 319 336 331 308 291 286 279 271 265 259 250
204 253 260 259 164 131 189 228 141 113 118 103 101 109 93 79 64 75 102 123 155 160 176 194 216 214 230 258 347 81 94 100 349 349 356 344 317 288 302 299 295 293 291 284 278 269 260 261 258
150 212 2 343 295 333 182 91 102 138 139 128 109 102 101 97 92 85 73 71 62 54 41 30 28 35 28 8 13 341 329 168 211 267 316 284 289 286 291 295 277 273 274 270 270 264 263 257 253
19 342 117 229 240 223 240 144 144 160 150 135 127 123 120 118 106 94 80 71 78 73 64 57 30 35 49 30 24 35 356 340 324 313 286 292 282 269 267 268 268 269 267 265 264 264 262 261 259
148 213 243 323 257 6 336 71 114 160 153 148 135 140 134 115 109 110 116 124 125 115 100 59 48 29 17 39 20 359 332 332 345 311 282 271 287 297 296 293 287 280 277 272 268 263 264 262 265
333 294 191 174 204 219 124 180 349 108 135 131 133 122 112 110 103 102 138 124 82 65 64 64 66 79 28 105 294 282 295 310 307 303 313 323 314 313 303 296 293 289 282 278 277 278 279 276 275